Satellite: ORSTED
Catalog number: 25635
Epoch time:      103019.54099580
Element set:     810 
Inclination:       96.4477 deg
RA of node:        12.9675 deg
Eccentricity:    0.0146846
Arg of perigee:    64.4484 deg
Mean anomaly:     297.1811 deg
Mean motion:   14.44780802 rev/day
Decay rate:    1.0490E-005 rev/day^2
Epoch rev:           20560
Checksum:              315

Satellite: SUNSAT
Catalog number: 25636
Epoch time:      103017.88818205
Element set:     657 
Inclination:       96.4513 deg
RA of node:        10.4338 deg
Eccentricity:    0.0150726
Arg of perigee:    75.9281 deg
Mean anomaly:     285.8610 deg
Mean motion:   14.42922471 rev/day
Decay rate:    5.0899E-006 rev/day^2
Epoch rev:           20524
Checksum:              314

Satellite: UOSAT 12
Catalog number: 25693
Epoch time:      103020.49086902
Element set:     628 
Inclination:       64.5611 deg
RA of node:        99.7845 deg
Eccentricity:    0.0017704
Arg of perigee:   317.5925 deg
Mean anomaly:      42.3803 deg
Mean motion:   14.76355030 rev/day
Decay rate:    5.3399E-006 rev/day^2
Epoch rev:           20196
Checksum:              318

Satellite: FENGYUN 1C
Catalog number: 25730
Epoch time:      103019.53139867
Element set:     746 
Inclination:       98.6360 deg
RA of node:        45.0592 deg
Eccentricity:    0.0015390
Arg of perigee:    88.6455 deg
Mean anomaly:     271.6486 deg
Mean motion:   14.11731064 rev/day
Decay rate:    9.5999E-007 rev/day^2
Epoch rev:           19039
Checksum:              341

Satellite: ASTRA 1H
Catalog number: 25785
Epoch time:      103013.00000000
Element set:     368 
Inclination:        0.0122 deg
RA of node:       319.8851 deg
Eccentricity:    0.0002995
Arg of perigee:    65.1991 deg
Mean anomaly:     106.1621 deg
Mean motion:    1.00273184 rev/day
Decay rate:    1.3899E-006 rev/day^2
Epoch rev:            1313
Checksum:              244

Satellite: TERRA
Catalog number: 25994
Epoch time:      103020.26559145
Element set:     619 
Inclination:       98.2051 deg
RA of node:        96.9330 deg
Eccentricity:    0.0001043
Arg of perigee:    82.4400 deg
Mean anomaly:     277.6907 deg
Mean motion:   14.57097117 rev/day
Decay rate:    5.9700E-006 rev/day^2
Epoch rev:           16440
Checksum:              299

Satellite: JAWSAT
Catalog number: 26061
Epoch time:      103020.56084044
Element set:     745 
Inclination:      100.2114 deg
RA of node:        72.2392 deg
Eccentricity:    0.0035227
Arg of perigee:     2.2339 deg
Mean anomaly:     357.8995 deg
Mean motion:   14.37791279 rev/day
Decay rate:    8.0099E-006 rev/day^2
Epoch rev:           15636
Checksum:              394

Satellite: OPAL
Catalog number: 26063
Epoch time:      103020.55960523
Element set:     702 
Inclination:      100.2164 deg
RA of node:        69.8700 deg
Eccentricity:    0.0037370
Arg of perigee:     8.8519 deg
Mean anomaly:     351.3317 deg
Mean motion:   14.35469251 rev/day
Decay rate:    2.5300E-006 rev/day^2
Epoch rev:           15622
Checksum:              264

Satellite: ASUSAT
Catalog number: 26065
Epoch time:      103019.54122589
Element set:     712 
Inclination:      100.2164 deg
RA of node:        68.8090 deg
Eccentricity:    0.0037553
Arg of perigee:    13.1434 deg
Mean anomaly:     347.0716 deg
Mean motion:   14.35495036 rev/day
Decay rate:    2.9099E-006 rev/day^2
Epoch rev:           15607
0Checksum:              292

Satellite: GOES 11
Catalog number: 26352
Epoch time:      103018.56756318
Element set:     982 
Inclination:        0.0683 deg
RA of node:       110.1744 deg
Eccentricity:    0.0004467
Arg of perigee:   166.8282 deg
Mean anomaly:     292.3764 deg
Mean motion:    1.00262168 rev/day
Decay rate:   -2.6999E-007 rev/day^2
Epoch rev:             992
Checksum:              313

Satellite: EUTELSAT W4
Catalog number: 26369
Epoch time:      103019.74438112
Element set:     341 
Inclination:        0.0502 deg
RA of node:        35.6656 deg
Eccentricity:    0.0006941
Arg of perigee:   257.0242 deg
Mean anomaly:     130.0516 deg
Mean motion:    1.00272366 rev/day
Decay rate:    1.6400E-006 rev/day^2
Epoch rev:             975
Checksum:              251

Satellite: FENGYUN 2B
Catalog number: 26382
Epoch time:      103018.64433007
Element set:     771 
Inclination:        0.6411 deg
RA of node:       287.1631 deg
Eccentricity:    0.0000463
Arg of perigee:   150.6795 deg
Mean anomaly:      16.0863 deg
Mean motion:    1.00263877 rev/day
Decay rate:   -3.1500E-006 rev/day^2
Epoch rev:             940
Checksum:              260

Satellite: EUTELSAT W1
Catalog number: 26487
Epoch time:      103019.89353010
Element set:     345 
Inclination:        0.0166 deg
RA of node:        80.1752 deg
Eccentricity:    0.0003955
Arg of perigee:   205.6248 deg
Mean anomaly:     164.6935 deg
Mean motion:    1.00272665 rev/day
Decay rate:    7.6999E-007 rev/day^2
Epoch rev:             872
Checksum:              410

Satellite: ASTRA 2B
Catalog number: 26494
Epoch time:      103013.00000000
Element set:     251 
Inclination:        0.0178 deg
RA of node:       354.5658 deg
Eccentricity:    0.0005000
Arg of perigee:   302.8402 deg
Mean anomaly:     202.8287 deg
Mean motion:    1.00276704 rev/day
Decay rate:    1.6899E-006 rev/day^2
Epoch rev:             855
Checksum:              240

Satellite: NOAA 16
Catalog number: 26536
Epoch time:      103019.95985754
Element set:     172 
Inclination:       98.8990 deg
RA of node:       328.4682 deg
Eccentricity:    0.0011039
Arg of perigee:    33.7527 deg
Mean anomaly:     326.4312 deg
Mean motion:   14.11887676 rev/day
Decay rate:    3.0100E-006 rev/day^2
Epoch rev:           11997
Checksum:              336

Satellite: SAUDISAT 1A
Catalog number: 26545
Epoch time:      103019.86079131
Element set:     400 
Inclination:       64.5587 deg
RA of node:       123.2247 deg
Eccentricity:    0.0054002
Arg of perigee:   243.5242 deg
Mean anomaly:     116.0339 deg
Mean motion:   14.78897968 rev/day
Decay rate:    1.7939E-005 rev/day^2
Epoch rev:           12482
Checksum:              411

Satellite: UNISAT
Catalog number: 26547
Epoch time:      103019.45651085
Element set:     419 
Inclination:       64.5573 deg
RA of node:       126.8153 deg
Eccentricity:    0.0061101
Arg of perigee:   246.0559 deg
Mean anomaly:     113.4083 deg
Mean motion:   14.79607983 rev/day
Decay rate:    3.2209E-005 rev/day^2
Epoch rev:           12473
Checksum:              301

Satellite: TIUNGSAT 1
Catalog number: 26548
Epoch time:      103018.71367124
Element set:     403 
Inclination:       64.5576 deg
RA of node:       119.9811 deg
Eccentricity:    0.0047211
Arg of perigee:   242.9526 deg
Mean anomaly:     116.6735 deg
Mean motion:   14.81159613 rev/day
Decay rate:    2.5310E-005 rev/day^2
Epoch rev:           12479
Checksum:              299

Satellite: SAUDISAT 1B
Catalog number: 26549
Epoch time:      103020.34923777
Element set:     670 
Inclination:       64.5496 deg
RA of node:       125.6847 deg
Eccentricity:    0.0058415
Arg of perigee:   243.6180 deg
Mean anomaly:     115.8907 deg
Mean motion:   14.77841897 rev/day
Decay rate:    2.0359E-005 rev/day^2
Epoch rev:           12482
Checksum:              435

Satellite: AMSAT OSCAR 40
Catalog number: 26609
Epoch time:      103018.40123252
Element set:     305 
Inclination:        7.9708 deg
RA of node:        69.8773 deg
Eccentricity:    0.7935358
Arg of perigee:   134.4243 deg
Mean anomaly:     325.7472 deg
Mean motion:    1.25596623 rev/day
Decay rate:   -1.1000E-007 rev/day^2
Epoch rev:            1019
Checksum:              372

Satellite: GOES 12
Catalog number: 26871
Epoch time:      103017.22389260
Element set:     776 
Inclination:        0.4716 deg
RA of node:        97.7371 deg
Eccentricity:    0.0000777
Arg of perigee:    39.9403 deg
Mean anomaly:     313.9601 deg
Mean motion:    1.00278668 rev/day
Decay rate:   -7.4000E-007 rev/day^2
Epoch rev:             551
Checksum:              294

Satellite: STARSHINE 3
Catalog number: 26929
Epoch time:      103020.67712757
Element set:     711 
Inclination:       67.0106 deg
RA of node:        59.7055 deg
Eccentricity:    0.0005930
Arg of perigee:   304.3423 deg
Mean anomaly:     172.9955 deg
Mean motion:   16.38467802 rev/day
Decay rate:    6.6210E-002 rev/day^2
Epoch rev:            7425
Checksum:              301

Satellite: PCSAT
Catalog number: 26931
Epoch time:      103020.20165909
Element set:     381 
Inclination:       67.0477 deg
RA of node:       331.2154 deg
Eccentricity:    0.0005293
Arg of perigee:   258.2923 deg
Mean anomaly:     101.7584 deg
Mean motion:   14.29099685 rev/day
Decay rate:    4.0499E-006 rev/day^2
Epoch rev:            6815
Checksum:              417

Satellite: SAPPHIRE
Catalog number: 26932
Epoch time:      103019.55363370
Element set:     375 
Inclination:       67.0584 deg
RA of node:       332.5935 deg
Eccentricity:    0.0005934
Arg of perigee:   242.5381 deg
Mean anomaly:     117.5116 deg
Mean motion:   14.29283260 rev/day
Decay rate:    2.8199E-006 rev/day^2
Epoch rev:            6808
Checksum:              420

Satellite: ENVISAT
Catalog number: 27386
Epoch time:      103020.41334963
Element set:     862 
Inclination:       98.5492 deg
RA of node:        89.3857 deg
Eccentricity:    0.0000829
Arg of perigee:    82.6519 deg
Mean anomaly:     277.4760 deg
Mean motion:   14.32238979 rev/day
Decay rate:   -8.1500E-006 rev/day^2
Epoch rev:            4657
Checksum:              342

